Hourly Weather Rus'ka

Today, 15 April, Thursday

Time Temperature Precipitation Wind Pressure Humidity
00:00 -1°C° 0.2 mm 1 mps 675 mmHg 95%
01:00 -1°C° 0.2 mm 1 mps 675 mmHg 95%
02:00 -1°C° 0.2 mm 1 mps 675 mmHg 96%
03:00 -1°C° 0.3 mm 1 mps 675 mmHg 96%
04:00 -1°C° 0.3 mm 1 mps 675 mmHg 96%
05:00 -1°C° 0.3 mm 1 mps 675 mmHg 96%
06:00 -1°C° 0.2 mm 1 mps 675 mmHg 94%
07:00 0°C° 0.2 mm 1 mps 675 mmHg 92%
08:00 0°C° 0.2 mm 1 mps 676 mmHg 90%
09:00 +1°C° 0.1 mm 1 mps 676 mmHg 88%
10:00 +1°C° 0.1 mm 2 mps 676 mmHg 86%
11:00 +2°C° 0.1 mm 2 mps 676 mmHg 84%
12:00 +2°C° 0.1 mm 2 mps 676 mmHg 85%
13:00 +2°C° 0.1 mm 2 mps 676 mmHg 85%
14:00 +2°C° 0.1 mm 2 mps 676 mmHg 86%
15:00 +2°C° 0.4 mm 2 mps 676 mmHg 89%
16:00 +2°C° 0.4 mm 1 mps 676 mmHg 93%
17:00 +2°C° 0.4 mm 1 mps 676 mmHg 96%
18:00 +1°C° 0.5 mm 1 mps 676 mmHg 97%
19:00 +1°C° 0.5 mm 1 mps 676 mmHg 98%
20:00 0°C° 0.5 mm 1 mps 676 mmHg 98%
21:00 0°C° 0.3 mm 1 mps 676 mmHg 98%
22:00 -1°C° 0.3 mm 1 mps 676 mmHg 98%
23:00 -1°C° 0.3 mm 1 mps 676 mmHg 98%

Tomorrow, 16 April, Friday

Time Temperature Precipitation Wind Pressure Humidity
00:00 -1°C° 0.2 mm 1 mps 676 mmHg 98%
01:00 -1°C° 0.2 mm 1 mps 676 mmHg 98%
02:00 -2°C° 0.2 mm 1 mps 676 mmHg 97%
03:00 -2°C° 0.1 mm 1 mps 676 mmHg 97%
04:00 -2°C° 0.1 mm 1 mps 675 mmHg 97%
05:00 -3°C° 0.1 mm 1 mps 675 mmHg 96%
06:00 -2°C° 0 mm 1 mps 676 mmHg 91%
07:00 -1°C° 0 mm 1 mps 676 mmHg 86%
08:00 0°C° 0 mm 1 mps 676 mmHg 81%
09:00 -1°C° 0 mm 2 mps 676 mmHg 77%
10:00 +2°C° 0 mm 2 mps 676 mmHg 74%
11:00 +2°C° 0 mm 3 mps 677 mmHg 70%
12:00 +2°C° 0 mm 3 mps 677 mmHg 70%
13:00 +3°C° 0 mm 3 mps 677 mmHg 69%
14:00 +3°C° 0 mm 3 mps 677 mmHg 69%
15:00 +3°C° 0 mm 3 mps 677 mmHg 70%
16:00 +3°C° 0 mm 2 mps 677 mmHg 72%
17:00 +3°C° 0 mm 2 mps 677 mmHg 73%
18:00 +1°C° 0 mm 2 mps 678 mmHg 79%
19:00 -1°C° 0 mm 2 mps 678 mmHg 85%
20:00 -1°C° 0 mm 1 mps 678 mmHg 91%
21:00 -2°C° 0 mm 1 mps 678 mmHg 92%
22:00 -2°C° 0 mm 1 mps 678 mmHg 93%
23:00 -5°C° 0 mm 2 mps 678 mmHg 93%

Day after tomorrow, 17 April, Saturday

Time Temperature Precipitation Wind Pressure Humidity
00:00 -3°C° 0 mm 1 mps 678 mmHg 93%
01:00 -3°C° 0 mm 1 mps 678 mmHg 93%
02:00 -3°C° 0 mm 1 mps 678 mmHg 93%
03:00 -4°C° 0 mm 1 mps 678 mmHg 93%
04:00 -4°C° 0 mm 1 mps 678 mmHg 93%
05:00 -4°C° 0 mm 1 mps 678 mmHg 93%
06:00 -2°C° 0 mm 1 mps 678 mmHg 86%
07:00 0°C° 0 mm 1 mps 678 mmHg 78%
08:00 +1°C° 0 mm 0 mps 679 mmHg 71%
09:00 +3°C° 0 mm 0 mps 679 mmHg 65%
10:00 +6°C° 0 mm 1 mps 678 mmHg 60%
11:00 +8°C° 0 mm 1 mps 678 mmHg 55%
12:00 +7°C° 0 mm 2 mps 678 mmHg 54%
13:00 +8°C° 0 mm 2 mps 678 mmHg 53%
14:00 +8°C° 0 mm 3 mps 678 mmHg 52%
15:00 +8°C° 0 mm 3 mps 678 mmHg 55%
16:00 +7°C° 0 mm 3 mps 678 mmHg 59%
17:00 +7°C° 0 mm 3 mps 678 mmHg 63%
18:00 +5°C° 0 mm 2 mps 677 mmHg 70%
19:00 +4°C° 0 mm 1 mps 677 mmHg 77%
20:00 +3°C° 0 mm 1 mps 677 mmHg 85%
21:00 +2°C° 0 mm 1 mps 677 mmHg 86%
22:00 +1°C° 0 mm 0 mps 677 mmHg 87%
23:00 0°C° 0 mm 0 mps 677 mmHg 88%

18 April, Sunday

Time Temperature Precipitation Wind Pressure Humidity
00:00 +1°C° 0 mm 1 mps 677 mmHg 90%
01:00 0°C° 0 mm 1 mps 677 mmHg 91%
02:00 0°C° 0 mm 1 mps 677 mmHg 93%
03:00 0°C° 0 mm 1 mps 677 mmHg 94%
04:00 -1°C° 0 mm 1 mps 677 mmHg 95%
05:00 -1°C° 0 mm 1 mps 677 mmHg 96%
06:00 -1°C° 0 mm 2 mps 677 mmHg 89%
07:00 +1°C° 0 mm 2 mps 677 mmHg 83%
08:00 +2°C° 0 mm 3 mps 677 mmHg 77%
09:00 +1°C° 0 mm 4 mps 677 mmHg 77%
10:00 +1°C° 0 mm 4 mps 677 mmHg 78%
11:00 +3°C° 0 mm 4 mps 677 mmHg 79%
12:00 +1°C° 0.1 mm 4 mps 677 mmHg 83%
13:00 +2°C° 0.1 mm 3 mps 677 mmHg 87%
14:00 +3°C° 0.1 mm 2 mps 677 mmHg 91%
15:00 +2°C° 0.1 mm 2 mps 677 mmHg 93%
16:00 +2°C° 0.1 mm 2 mps 677 mmHg 95%
17:00 +3°C° 0.1 mm 1 mps 677 mmHg 97%
18:00 +3°C° 0.5 mm 1 mps 677 mmHg 98%
19:00 +2°C° 0.5 mm 1 mps 677 mmHg 98%
20:00 +2°C° 0.5 mm 1 mps 677 mmHg 98%
21:00 +2°C° 1.3 mm 1 mps 677 mmHg 98%
22:00 +2°C° 1.3 mm 1 mps 676 mmHg 98%
23:00 +2°C° 1.3 mm 1 mps 676 mmHg 98%

19 April, Monday

Time Temperature Precipitation Wind Pressure Humidity
00:00 +2°C° 0.1 mm 1 mps 676 mmHg 98%
01:00 +2°C° 0.1 mm 1 mps 676 mmHg 98%
02:00 +1°C° 0.1 mm 0 mps 675 mmHg 98%
03:00 +1°C° 0 mm 0 mps 675 mmHg 98%
04:00 +1°C° 0 mm 0 mps 675 mmHg 98%
05:00 +1°C° 0 mm 0 mps 675 mmHg 98%
06:00 +1°C° 0.5 mm 0 mps 675 mmHg 98%
07:00 +1°C° 0.5 mm 0 mps 674 mmHg 98%
08:00 +2°C° 0.5 mm 0 mps 674 mmHg 97%
09:00 +2°C° 0.8 mm 0 mps 674 mmHg 97%
10:00 +2°C° 0.8 mm 0 mps 674 mmHg 97%
11:00 +2°C° 0.8 mm 0 mps 673 mmHg 97%
12:00 +2°C° 0.6 mm 0 mps 673 mmHg 97%
13:00 +3°C° 0.6 mm 0 mps 673 mmHg 97%
14:00 +3°C° 0.6 mm 0 mps 673 mmHg 97%
15:00 +3°C° 0.1 mm 0 mps 672 mmHg 97%
16:00 +4°C° 0.1 mm 1 mps 672 mmHg 97%
17:00 +4°C° 0.1 mm 1 mps 672 mmHg 96%
18:00 +3°C° 0 mm 1 mps 672 mmHg 97%
19:00 +3°C° 0 mm 1 mps 671 mmHg 98%
20:00 +3°C° 0 mm 1 mps 671 mmHg 98%
21:00 +3°C° 0 mm 1 mps 670 mmHg 98%
22:00 +3°C° 0 mm 1 mps 670 mmHg 98%
23:00 +3°C° 0 mm 1 mps 669 mmHg 98%

20 April, Tuesday

Time Temperature Precipitation Wind Pressure Humidity
00:00 +3°C° 0 mm 1 mps 669 mmHg 98%
01:00 +3°C° 0 mm 1 mps 668 mmHg 98%
02:00 +2°C° 0 mm 2 mps 668 mmHg 98%
03:00 +2°C° 0.2 mm 2 mps 667 mmHg 98%
04:00 +2°C° 0.2 mm 2 mps 667 mmHg 98%
05:00 +1°C° 0.2 mm 3 mps 666 mmHg 98%
06:00 +1°C° 0 mm 3 mps 666 mmHg 97%
07:00 +1°C° 0 mm 3 mps 665 mmHg 96%
08:00 0°C° 0 mm 4 mps 665 mmHg 95%
09:00 +1°C° 0.2 mm 4 mps 665 mmHg 94%
10:00 +1°C° 0.2 mm 5 mps 665 mmHg 93%
11:00 +1°C° 0.2 mm 5 mps 665 mmHg 92%
12:00 +1°C° 0.2 mm 6 mps 665 mmHg 92%
13:00 +1°C° 0.2 mm 6 mps 665 mmHg 91%
14:00 0°C° 0.2 mm 7 mps 666 mmHg 90%
15:00 +1°C° 0.1 mm 6 mps 666 mmHg 90%
16:00 +1°C° 0.1 mm 6 mps 666 mmHg 90%
17:00 +1°C° 0.1 mm 6 mps 666 mmHg 90%
18:00 +1°C° 0.1 mm 6 mps 667 mmHg 89%
19:00 +1°C° 0.1 mm 5 mps 667 mmHg 89%
20:00 +1°C° 0.1 mm 5 mps 667 mmHg 88%
21:00 +1°C° 0.1 mm 5 mps 667 mmHg 89%
22:00 +1°C° 0.1 mm 5 mps 667 mmHg 89%
23:00 +1°C° 0.1 mm 5 mps 668 mmHg 90%
Show more